Temp
65 65 65 65 65 65 64 64 64 64 64 65 65 65 65 65 64 71 66 73 76 71 71 80 78 80 80 74 75 76 68 64 68 70 71 77 74 77 79 77 79 79 80 79 80
65 65 65 65 64 64 64 64 64 64 64 64 64 64 64 64 71 70 76 73 73 70 76 75 75 75 75 75 73 72 67 69 76 78 74 74 77 75 75 76 76 75 76 79 76
64 64 65 64 64 64 64 64 63 63 63 63 64 64 64 67 69 73 72 72 72 72 80 79 78 76 70 74 74 72 67 73 73 75 77 75 75 79 76 73 79 77 77 75 72
64 64 64 64 64 64 64 63 63 63 63 63 63 63 63 70 59 75 71 71 70 79 78 75 74 69 69 67 73 67 70 72 71 70 71 72 78 73 77 76 79 83 84 77 74
63 63 63 63 63 63 63 63 63 62 62 62 63 63 67 65 69 76 69 70 77 78 76 73 71 70 65 71 69 70 70 70 70 69 71 71 71 74 73 79 78 77 79 77 77
62 62 62 62 62 63 63 63 62 62 62 63 63 63 68 61 75 78 76 74 78 78 76 76 74 75 72 69 69 72 70 69 69 69 68 68 69 69 76 77 77 74 77 78 78
62 61 61 61 62 62 62 62 62 62 62 63 64 70 68 69 76 78 75 76 78 79 74 79 78 72 72 64 69 68 64 67 67 68 66 70 64 65 78 74 75 74 77 78 80
61 61 61 61 61 61 62 62 61 61 62 63 63 70 65 72 79 73 76 74 78 79 78 79 78 72 70 68 67 65 66 59 66 66 66 66 62 74 75 73 74 78 78 77 77
60 60 60 61 61 61 61 61 61 62 63 63 66 67 63 68 69 76 78 72 75 76 76 77 76 70 68 63 59 60 57 59 59 65 65 63 64 74 71 72 73 76 78 77 77
60 60 60 60 61 60 61 61 61 62 65 70 69 62 66 64 70 73 77 76 72 71 70 70 70 65 66 62 53 56 57 58 60 61 60 61 63 69 70 70 71 75 77 77 77
59 60 60 60 60 61 60 60 57 56 61 61 62 63 65 69 73 70 74 72 72 70 62 66 61 57 63 65 65 64 61 59 61 59 60 62 62 68 73 71 70 72 75 77 78
59 59 60 60 61 61 63 61 64 67 51 61 60 62 65 70 61 66 73 67 64 59 66 59 56 66 69 66 61 61 58 58 56 58 56 60 58 66 70 70 71 74 75 77 79
59 59 60 60 60 59 61 63 68 70 56 55 59 60 61 64 64 62 69 68 63 60 61 59 61 67 62 59 58 59 57 58 57 56 57 56 57 61 68 70 71 71 72 73 73
59 59 59 60 55 58 57 68 66 67 51 49 53 60 61 63 58 70 70 68 62 60 61 62 59 59 58 58 61 55 61 59 55 55 51 56 51 60 64 63 64 68 68 70 67
57 59 59 60 56 53 61 66 65 63 33 56 55 67 65 60 60 57 67 65 59 59 60 56 55 54 54 58 61 58 60 59 55 54 51 54 50 60 59 60 65 65 65 65 65
57 58 59 58 58 60 63 63 60 43 32 47 53 52 54 58 55 57 60 65 64 58 58 59 58 60 60 56 60 57 55 55 55 54 43 53 51 56 60 61 62 64 63 61 61
55 57 58 62 53 61 62 55 39 31 53 43 46 52 54 52 52 56 54 53 52 47 49 51 52 55 58 52 55 58 54 43 41 41 41 47 46 55 63 60 63 62 61 60 60
54 57 58 62 60 59 56 45 31 44 49 52 51 50 49 53 53 52 51 49 58 58 54 46 42 51 56 57 51 52 55 44 33 35 43 41 40 53 59 58 60 61 61 59 59
52 55 53 56 59 59 48 33 36 47 54 47 49 45 47 51 53 50 50 51 55 59 52 48 48 53 55 55 58 52 47 57 41 31 39 47 51 58 55 56 57 54 54 56 58
47 47 50 55 58 54 42 36 45 54 56 51 43 50 44 46 48 49 50 57 55 60 63 55 44 48 48 54 54 54 60 44 48 33 33 46 48 53 49 54 56 54 54 54 55
44 42 47 55 54 44 34 41 47 54 57 49 49 46 50 47 48 47 51 55 59 57 60 57 52 41 47 47 50 48 48 52 53 48 39 38 48 62 62 58 56 56 56 54 54
41 33 46 51 38 38 35 46 51 50 53 52 52 51 49 50 46 47 49 54 61 56 48 56 50 38 44 51 55 56 53 53 44 40 47 44 47 55 57 62 59 58 56 57 56
35 34 44 43 32 33 44 45 51 49 48 48 48 53 54 50 42 50 52 54 58 53 52 53 43 34 39 47 49 46 52 55 55 48 41 38 47 53 55 58 59 56 54 53 53
39 34 34 36 35 40 37 41 39 52 51 52 51 52 49 48 52 48 49 47 52 55 50 54 46 44 41 48 50 42 47 50 50 40 43 45 51 50 52 54 55 54 53 52 52
37 34 33 32 33 38 41 41 37 38 49 51 46 49 48 43 45 45 51 44 48 48 52 52 36 45 49 52 50 47 46 48 45 50 44 49 51 58 56 55 56 56 54 51 51
36 36 34 34 35 35 38 36 38 43 44 43 43 48 49 47 47 40 48 45 44 46 49 52 34 44 35 48 47 39 48 49 48 50 52 52 53 64 68 61 59 56 53 51 51
42 42 39 34 33 33 33 36 38 46 48 50 48 46 44 48 54 52 55 53 51 45 44 42 35 34 34 41 38 33 40 47 50 52 53 46 55 61 59 57 58 55 53 51 52
MSLP
1009.21 1009.89 1010.27 1010.79 1011.42 1011.62 1012.38 1012.93 1013.16 1013.40 1013.78 1014.08 1014.32 1014.59 1014.63 1014.78 1014.59 1014.47 1013.87 1013.37 1013.39 1013.69 1013.60 1013.68 1013.67 1013.54 1013.18 1012.91 1012.86 1012.60 1011.38 1010.11 1009.93 1009.75 1010.44 1011.33 1011.46 1012.16 1012.49 1012.46 1012.90 1013.37 1013.62 1014.55 1015.50
1008.83 1009.42 1010.01 1010.40 1010.99 1011.45 1011.95 1012.75 1013.02 1013.32 1013.63 1014.03 1014.31 1014.48 1014.47 1014.82 1014.38 1013.70 1012.74 1012.89 1013.27 1013.50 1013.60 1013.22 1013.18 1013.45 1012.65 1012.46 1012.58 1012.31 1011.17 1010.25 1010.26 1010.18 1010.63 1011.36 1011.49 1012.14 1012.40 1012.43 1012.94 1013.72 1014.70 1015.20 1016.26
1008.44 1008.96 1009.70 1010.06 1010.80 1011.23 1011.66 1012.39 1012.72 1013.14 1013.48 1013.72 1013.98 1014.55 1014.75 1014.61 1013.96 1012.00 1012.20 1012.76 1013.05 1013.28 1013.12 1013.06 1013.03 1013.05 1012.75 1012.40 1012.17 1011.98 1011.39 1011.16 1011.43 1011.51 1011.25 1011.72 1011.93 1012.07 1012.04 1012.14 1012.10 1012.90 1014.01 1015.18 1016.26
1008.03 1008.71 1009.37 1009.90 1010.50 1011.04 1011.62 1012.02 1012.47 1012.74 1013.37 1013.64 1013.75 1014.44 1014.61 1014.64 1013.10 1012.00 1012.02 1012.48 1013.00 1013.09 1013.05 1013.04 1013.32 1012.90 1012.59 1012.13 1011.97 1011.82 1011.90 1011.90 1012.21 1012.39 1012.33 1012.29 1012.21 1012.43 1012.26 1012.44 1012.75 1012.83 1013.12 1014.71 1015.52
1007.50 1008.47 1009.09 1009.61 1010.26 1010.87 1011.51 1011.87 1012.48 1012.54 1013.20 1013.68 1013.82 1014.12 1014.74 1013.89 1012.11 1012.25 1012.48 1012.66 1012.97 1012.90 1012.55 1012.68 1012.68 1012.62 1012.38 1011.99 1012.45 1011.83 1011.95 1012.58 1012.92 1013.00 1012.90 1012.99 1012.85 1012.40 1012.69 1012.82 1013.30 1013.49 1013.69 1014.43 1014.98
1007.63 1008.09 1008.86 1009.44 1010.12 1010.60 1011.37 1011.83 1012.44 1012.53 1013.03 1013.49 1013.71 1013.88 1013.80 1012.75 1012.20 1012.10 1012.28 1012.77 1012.40 1012.46 1012.23 1012.46 1012.21 1012.41 1012.40 1012.40 1012.27 1012.12 1012.36 1012.93 1013.21 1013.51 1013.38 1013.35 1013.31 1013.18 1012.61 1012.93 1013.21 1013.53 1013.65 1013.96 1014.41
1007.24 1007.86 1008.59 1009.12 1009.86 1010.51 1011.19 1011.64 1012.49 1012.67 1013.03 1013.36 1013.66 1013.44 1012.95 1011.99 1011.97 1012.19 1012.40 1012.44 1012.54 1012.11 1012.07 1012.19 1012.38 1012.64 1012.72 1012.51 1012.88 1012.75 1012.88 1013.15 1013.40 1013.69 1013.74 1013.76 1013.44 1012.95 1012.46 1013.10 1013.07 1013.21 1013.35 1013.49 1013.90
1006.84 1007.57 1008.20 1009.03 1009.80 1010.41 1011.18 1011.80 1012.39 1012.81 1013.20 1013.38 1013.61 1013.23 1011.97 1012.15 1012.05 1012.34 1012.28 1012.56 1012.61 1012.31 1012.22 1012.53 1012.41 1012.52 1012.79 1013.25 1013.12 1012.77 1012.76 1012.80 1013.31 1013.81 1014.07 1014.15 1012.43 1011.91 1012.65 1012.79 1012.43 1012.49 1012.66 1013.16 1013.52
1006.39 1007.06 1008.06 1009.12 1009.71 1010.28 1011.11 1012.00 1012.48 1013.02 1013.34 1013.45 1013.39 1012.73 1011.86 1012.61 1012.19 1012.09 1012.19 1012.26 1012.26 1012.30 1012.43 1012.64 1012.27 1012.45 1013.04 1012.75 1012.83 1012.75 1012.11 1012.52 1013.42 1013.83 1013.91 1014.04 1012.44 1011.86 1012.81 1012.82 1012.28 1012.10 1012.17 1012.52 1012.94
1006.10 1007.02 1007.95 1008.81 1009.22 1010.17 1011.14 1012.16 1012.72 1013.14 1013.27 1013.09 1012.69 1012.84 1011.74 1011.53 1011.55 1011.82 1012.23 1012.12 1011.99 1012.15 1012.53 1012.65 1012.33 1012.36 1012.09 1012.08 1011.41 1011.66 1012.03 1012.51 1012.84 1013.85 1014.09 1013.75 1012.83 1012.47 1012.81 1012.72 1012.29 1011.95 1012.00 1012.14 1012.43
1005.89 1006.84 1007.97 1008.11 1009.24 1010.04 1011.14 1012.00 1012.75 1012.90 1012.35 1011.19 1010.84 1010.79 1010.72 1011.56 1011.77 1011.62 1011.94 1012.06 1011.79 1011.78 1011.54 1012.04 1011.72 1011.08 1011.07 1011.45 1011.56 1011.43 1012.15 1012.18 1013.06 1014.26 1014.27 1013.42 1012.97 1012.01 1012.07 1012.22 1012.02 1011.91 1011.78 1011.80 1012.12
1005.62 1006.48 1007.19 1008.09 1009.02 1009.93 1010.28 1009.77 1009.88 1009.45 1011.57 1011.56 1011.28 1011.41 1011.46 1011.13 1011.23 1011.56 1011.88 1011.41 1011.40 1011.20 1011.14 1012.12 1011.17 1010.88 1011.12 1011.66 1012.23 1012.14 1012.31 1012.57 1014.26 1014.75 1014.64 1013.67 1013.07 1012.03 1011.81 1011.53 1011.48 1011.35 1011.43 1011.59 1011.88
1005.39 1006.30 1007.15 1008.07 1008.91 1009.94 1009.83 1009.57 1010.05 1009.88 1010.30 1011.33 1011.41 1011.19 1011.33 1011.52 1010.56 1011.05 1011.30 1010.90 1010.94 1010.94 1010.87 1010.65 1010.90 1010.87 1011.53 1012.00 1012.06 1012.26 1012.51 1013.03 1013.88 1014.60 1014.62 1014.13 1012.53 1011.46 1011.13 1011.12 1011.20 1011.54 1011.91 1012.17 1012.81
1005.00 1005.87 1006.55 1007.62 1009.78 1009.56 1009.75 1009.59 1010.29 1010.33 1010.18 1010.88 1010.95 1010.37 1011.14 1011.09 1011.10 1010.82 1011.16 1010.98 1011.16 1010.69 1011.45 1011.13 1011.74 1011.87 1012.04 1011.94 1012.26 1012.34 1012.94 1013.47 1013.96 1014.24 1014.17 1014.19 1012.14 1011.17 1010.78 1011.02 1011.37 1011.62 1012.16 1012.74 1013.70
1004.31 1005.38 1006.05 1007.45 1007.95 1008.68 1009.19 1009.87 1010.43 1010.36 1009.77 1008.95 1009.99 1010.05 1010.08 1010.55 1010.61 1011.60 1011.70 1011.54 1011.06 1010.96 1011.50 1011.28 1011.98 1012.57 1012.59 1012.22 1012.85 1012.88 1013.53 1013.78 1014.34 1014.61 1014.56 1014.02 1013.47 1010.65 1011.08 1011.08 1011.12 1011.81 1012.57 1013.56 1014.30
1004.38 1005.17 1006.17 1007.35 1007.87 1008.80 1009.38 1010.22 1010.63 1010.45 1008.57 1008.64 1009.34 1009.47 1010.03 1010.10 1010.74 1011.38 1011.71 1011.66 1011.62 1011.51 1011.62 1011.61 1012.85 1012.79 1012.75 1013.27 1013.43 1014.05 1014.29 1014.58 1014.72 1014.82 1014.47 1013.39 1013.33 1010.75 1010.81 1010.84 1011.14 1012.14 1013.27 1014.24 1014.98
1004.30 1004.48 1005.64 1006.18 1006.81 1008.30 1009.27 1009.98 1010.34 1008.95 1007.42 1008.12 1008.22 1008.59 1008.79 1009.51 1010.74 1010.50 1010.85 1011.15 1010.61 1010.95 1011.25 1012.43 1013.04 1013.58 1013.39 1013.84 1014.41 1014.06 1014.09 1014.67 1014.95 1014.75 1014.06 1014.12 1013.83 1010.70 1010.61 1011.23 1011.61 1012.65 1013.79 1014.74 1015.50
1003.27 1003.97 1004.64 1005.17 1006.18 1007.86 1009.54 1009.96 1008.61 1006.37 1006.30 1007.10 1007.60 1008.59 1008.33 1009.02 1009.87 1010.19 1010.34 1010.25 1009.92 1009.46 1009.86 1011.03 1012.62 1013.09 1013.22 1012.76 1013.15 1013.79 1013.45 1013.32 1013.91 1014.61 1014.14 1014.74 1012.80 1010.65 1011.18 1011.88 1012.71 1013.49 1014.37 1015.27 1015.85
1003.56 1003.53 1004.59 1005.29 1005.86 1007.07 1009.18 1008.53 1005.28 1004.96 1005.88 1007.02 1007.93 1007.87 1008.05 1008.22 1008.47 1009.70 1009.14 1008.87 1008.75 1008.89 1008.95 1010.04 1011.54 1012.87 1013.27 1013.26 1012.90 1013.76 1013.55 1013.46 1014.16 1015.42 1014.45 1012.83 1011.59 1011.13 1011.63 1012.25 1013.04 1014.06 1014.79 1015.46 1016.07
1004.44 1004.30 1004.51 1005.38 1005.90 1007.40 1008.22 1006.22 1005.39 1005.39 1005.70 1006.45 1006.25 1006.29 1006.52 1007.30 1007.72 1008.44 1008.34 1007.21 1007.89 1008.43 1008.84 1009.61 1011.41 1013.20 1013.96 1013.81 1013.53 1012.89 1012.63 1013.46 1013.41 1013.76 1013.16 1011.27 1010.87 1010.00 1011.12 1011.78 1012.70 1013.91 1014.75 1015.64 1016.31
1005.55 1005.30 1005.33 1004.79 1006.24 1007.59 1006.09 1004.75 1005.60 1005.76 1005.37 1005.63 1005.40 1006.00 1005.74 1006.31 1006.97 1007.63 1006.64 1007.14 1007.42 1008.22 1009.36 1009.70 1010.53 1013.67 1014.00 1012.78 1011.98 1012.86 1012.33 1012.18 1012.14 1012.14 1011.51 1010.81 1009.52 1009.03 1009.43 1010.61 1011.85 1013.25 1014.38 1015.46 1016.36
1006.23 1006.78 1006.19 1005.41 1006.25 1006.81 1005.98 1004.17 1005.28 1005.78 1006.00 1005.49 1005.67 1005.62 1005.50 1006.15 1006.74 1007.14 1006.27 1006.71 1007.16 1008.23 1008.99 1009.66 1010.82 1012.50 1012.52 1012.61 1012.24 1011.59 1011.09 1011.37 1011.09 1010.98 1011.33 1011.02 1008.95 1009.49 1009.98 1010.26 1011.67 1013.03 1014.30 1015.40 1016.26
1006.60 1006.92 1006.48 1006.24 1005.25 1005.58 1005.57 1005.71 1005.31 1005.38 1005.64 1005.91 1005.81 1005.62 1005.71 1005.76 1006.53 1006.31 1006.87 1007.52 1007.67 1008.18 1008.43 1009.72 1010.99 1012.05 1012.70 1012.80 1012.37 1011.63 1011.13 1010.99 1010.98 1011.37 1010.64 1010.97 1007.92 1009.86 1010.44 1010.82 1011.83 1013.19 1014.62 1015.71 1016.48
1006.69 1006.96 1007.29 1006.97 1006.48 1005.39 1005.50 1005.57 1005.60 1005.44 1005.45 1005.52 1005.43 1005.89 1006.01 1005.75 1005.72 1006.25 1007.10 1008.26 1008.22 1008.53 1008.99 1009.30 1010.04 1009.67 1008.82 1008.72 1010.45 1011.43 1011.02 1011.23 1011.18 1011.16 1008.98 1009.81 1007.52 1009.82 1010.45 1011.18 1012.24 1013.34 1014.49 1015.47 1016.38
1006.75 1006.94 1007.41 1007.27 1006.94 1005.78 1005.73 1005.69 1005.67 1005.60 1005.69 1005.83 1005.94 1005.49 1005.12 1005.56 1006.13 1006.50 1007.27 1008.73 1009.16 1009.52 1009.61 1009.73 1009.91 1010.21 1009.73 1009.81 1009.88 1009.81 1010.14 1010.60 1010.52 1008.85 1009.44 1007.23 1008.13 1007.95 1009.30 1010.54 1011.36 1012.50 1014.24 1015.32 1016.09
1006.98 1007.25 1007.55 1007.43 1007.13 1006.38 1005.81 1005.32 1005.21 1005.36 1005.35 1005.45 1005.58 1005.64 1005.65 1005.53 1005.73 1006.37 1006.95 1008.23 1008.51 1010.08 1009.99 1009.92 1010.40 1010.56 1010.73 1010.74 1010.63 1010.59 1009.97 1009.35 1008.92 1008.46 1008.67 1007.31 1007.20 1006.90 1007.95 1009.52 1010.84 1011.91 1013.27 1014.39 1015.42
1007.06 1007.26 1006.79 1007.13 1007.12 1006.76 1006.02 1005.87 1005.58 1005.81 1005.60 1005.82 1006.27 1006.36 1006.42 1006.32 1006.65 1006.98 1007.03 1007.93 1007.99 1008.66 1009.52 1010.08 1010.77 1011.27 1011.05 1011.21 1011.54 1010.98 1006.92 1008.75 1008.25 1007.90 1007.33 1007.12 1004.10 1007.29 1007.76 1008.74 1009.89 1011.45 1012.44 1013.37 1014.70
Wind_Speed
21 19 19 18 17 16 14 12 11 9 8 7 6 6 5 4 3 3 5 5 5 9 4 5 3 7 7 4 2 2 5 8 8 9 8 11 8 3 2 5 3 5 4 3 16
21 19 19 18 17 16 17 14 12 11 10 8 6 4 2 2 7 13 7 7 6 10 6 10 8 7 5 6 4 6 5 7 3 5 9 13 8 10 6 7 6 7 7 7 14
20 19 19 18 19 16 17 14 13 11 10 9 7 3 1 2 5 8 11 9 10 11 4 7 2 9 7 5 7 5 6 3 3 5 1 10 7 7 5 8 5 10 12 13 13
21 18 18 18 17 17 16 14 14 12 11 9 9 5 3 6 8 4 3 11 10 12 8 8 8 6 7 7 5 7 2 1 3 3 3 8 5 6 8 5 5 4 8 13 15
20 18 17 17 16 16 16 14 13 13 11 10 10 9 6 8 8 5 6 9 10 11 11 10 10 8 8 6 5 8 6 3 4 5 3 4 5 1 7 6 4 4 5 11 12
20 19 17 18 15 15 13 14 12 11 10 10 8 8 6 12 3 4 7 7 10 13 11 10 7 6 6 6 11 3 6 6 5 4 3 4 3 1 4 3 7 5 8 10 12
21 20 17 18 16 15 13 12 11 10 10 9 9 6 7 7 1 4 6 5 7 10 11 9 4 6 4 6 2 8 7 6 5 4 3 2 4 7 5 4 6 8 10 9 11
22 20 20 18 17 15 14 13 10 9 7 7 6 6 5 3 3 5 6 5 6 4 4 6 5 5 2 6 4 6 5 7 8 6 3 4 9 11 3 6 10 11 8 10 12
21 21 21 20 18 17 16 13 10 9 6 7 7 7 6 5 6 8 8 9 8 6 4 4 3 4 5 7 6 6 8 11 6 6 4 9 6 5 3 6 7 7 9 10 10
22 22 22 21 19 18 17 14 10 11 6 5 1 6 8 6 7 7 6 10 5 12 9 7 7 9 10 11 12 10 9 5 10 6 5 8 12 6 6 6 7 8 8 9 10
20 22 24 21 22 22 19 12 9 6 10 3 7 1 7 7 6 9 7 10 9 14 11 13 10 15 16 15 4 3 11 10 3 3 5 10 13 10 10 10 11 11 11 10 10
22 22 23 22 24 23 15 10 14 6 8 5 5 2 1 3 6 11 9 11 10 15 14 7 15 14 13 13 8 6 6 5 4 3 3 4 12 13 14 14 14 13 13 12 9
23 24 25 23 25 16 17 11 4 9 7 7 4 7 4 6 6 17 16 10 15 18 18 15 5 10 11 13 14 12 11 6 2 5 2 5 13 14 10 12 13 10 8 8 7
23 25 25 25 15 14 16 10 1 2 6 9 9 7 6 5 5 9 13 10 6 18 16 15 6 12 14 16 14 13 7 4 5 3 5 1 6 5 7 8 9 9 8 7 5
23 26 29 25 12 15 12 6 2 2 7 16 13 7 12 12 13 8 4 6 12 10 9 6 9 14 16 17 14 4 10 9 5 4 3 7 6 7 4 11 13 10 7 6 5
26 27 31 12 7 14 9 7 3 5 11 11 11 15 15 14 4 8 10 1 4 7 7 3 3 6 2 5 10 14 9 8 5 4 7 12 9 9 8 5 4 8 7 6 6
12 30 29 13 13 14 10 5 6 11 10 10 11 17 22 15 10 14 18 15 13 12 13 5 6 4 6 9 8 9 15 5 6 6 6 3 6 14 2 3 2 8 8 7 7
8 31 17 9 18 16 7 10 9 14 18 4 11 18 23 21 16 14 19 19 23 19 13 14 11 13 11 8 10 16 16 6 7 6 3 2 10 6 0 3 3 3 7 8 7
10 13 7 10 19 15 13 12 14 14 24 11 15 21 18 22 13 16 21 22 21 22 14 15 12 6 8 3 15 12 10 1 6 2 1 7 7 7 8 5 8 9 9 9 8
3 2 9 20 21 17 15 21 18 8 18 18 15 16 24 24 16 21 21 18 20 23 16 6 7 4 3 3 4 8 12 5 5 5 6 8 10 10 8 13 12 12 12 11 8
2 2 4 18 17 17 20 22 16 9 13 19 13 15 19 22 21 22 16 8 25 21 16 6 3 4 6 14 16 6 7 7 4 7 5 5 9 2 8 16 18 15 13 12 11
2 3 2 11 11 12 16 24 13 13 9 15 4 8 16 21 21 20 23 13 17 16 17 11 4 6 11 3 6 16 18 18 9 7 6 6 14 4 0 10 14 15 14 14 12
2 0 4 5 11 17 12 24 15 18 16 12 12 10 8 19 11 21 12 5 11 16 16 12 6 5 5 6 6 9 14 12 16 1 12 7 15 2 4 8 11 15 13 11 11
2 1 2 4 4 17 12 23 12 15 16 10 9 8 11 16 15 15 14 3 4 13 4 17 5 18 20 12 13 11 16 16 14 10 20 15 26 6 9 12 13 14 14 13 11
2 2 2 3 2 9 14 18 11 13 12 13 9 16 12 9 17 8 18 5 5 3 6 12 10 12 18 11 2 9 15 19 20 27 17 28 23 19 14 17 20 17 14 14 14
1 1 2 2 3 1 15 11 23 20 18 16 13 14 10 12 10 6 13 9 7 7 12 7 3 8 3 11 6 3 13 22 26 26 23 28 23 13 11 17 18 19 18 17 15
2 1 2 4 3 2 2 5 15 23 13 14 17 11 11 14 6 3 8 7 8 13 11 9 7 4 8 6 5 7 30 17 21 26 21 25 35 9 10 17 16 18 21 20 16
Wind_Direction
187 189 186 181 186 178 192 195 184 177 179 178 200 200 187 157 108 176 220 216 173 169 192 146 169 226 207 154 178 281 241 198 184 182 138 153 164 161 63 145 175 149 32 82 124
185 186 184 180 180 181 180 188 181 170 165 175 189 216 184 200 220 226 210 161 182 161 178 180 188 203 196 178 168 236 244 198 136 161 163 168 190 159 179 160 179 170 117 143 141
183 180 181 177 180 180 178 180 172 164 163 159 160 202 190 242 247 244 147 179 171 178 202 215 254 197 218 192 174 175 236 126 132 84 84 164 176 172 204 188 181 198 170 163 161
177 176 178 174 174 173 183 171 167 159 166 162 156 172 139 207 208 83 125 168 169 181 176 163 193 200 220 194 175 183 162 278 134 100 112 170 153 196 220 81 34 129 154 170 177
176 175 182 169 172 165 180 170 173 160 161 169 163 156 173 210 251 107 130 145 167 179 176 174 189 200 217 203 185 220 150 130 113 132 113 126 175 152 217 161 114 96 163 180 198
175 169 174 167 163 160 176 166 172 157 160 171 164 157 216 230 80 131 140 163 184 186 178 181 203 217 213 200 208 135 151 138 147 140 105 200 166 226 185 153 201 199 197 203 210
174 171 169 161 158 159 164 155 168 155 164 171 168 201 209 223 75 151 159 183 192 200 182 179 177 191 173 145 126 153 131 151 168 171 107 241 215 227 179 171 187 203 223 219 217
173 168 161 158 157 158 154 149 152 151 160 163 180 203 232 77 137 167 173 168 180 172 236 157 156 117 299 120 131 175 192 186 154 175 134 224 244 205 153 232 241 235 213 213 219
171 164 159 160 156 156 146 143 140 146 152 159 169 227 212 139 177 171 183 175 152 132 109 132 156 142 147 189 167 209 206 209 154 198 147 218 243 176 177 229 241 243 234 217 218
167 167 161 161 152 149 135 135 130 136 163 171 303 198 163 201 148 161 162 173 159 146 136 178 183 189 198 206 207 188 217 213 205 166 203 205 243 171 196 215 243 251 237 225 221
169 166 164 155 152 148 133 133 149 165 199 171 183 195 145 111 154 175 168 168 161 180 174 188 202 206 196 209 275 260 219 205 133 96 233 233 251 248 230 230 245 246 247 229 214
167 168 161 158 153 152 167 177 178 129 165 237 326 115 151 200 143 175 186 178 179 191 188 175 217 206 212 193 196 184 211 201 112 147 226 230 266 264 243 235 241 243 233 240 235
170 168 161 157 149 157 186 187 33 169 159 171 185 202 177 196 183 180 185 197 196 197 193 202 195 185 173 193 198 206 217 204 320 158 209 283 264 244 234 240 242 251 257 271 272
173 165 158 149 151 171 186 174 212 240 175 174 202 207 160 192 199 166 210 182 200 207 204 231 112 177 192 207 205 206 202 178 150 208 258 285 275 198 198 225 215 214 206 186 169
170 166 159 158 135 175 172 151 173 237 205 162 163 132 162 185 124 186 150 176 184 168 194 156 163 177 204 202 200 185 164 167 159 241 319 206 263 259 96 246 220 190 168 165 147
175 172 161 160 134 155 148 151 196 171 222 165 146 172 167 195 135 123 173 99 28 155 230 112 13 202 207 73 197 135 117 106 134 204 251 240 219 246 200 228 127 152 172 155 150
245 173 166 163 148 144 138 171 134 209 141 168 180 177 179 174 161 175 180 190 181 179 191 147 175 146 157 114 139 181 163 165 205 197 245 55 205 259 176 129 201 176 162 153 151
268 172 168 160 140 132 154 170 183 206 189 118 158 171 188 161 192 186 180 197 214 208 182 191 199 183 175 207 169 197 195 188 194 196 186 118 227 248 44 89 137 141 145 151 151
3 156 159 152 147 135 167 196 202 190 199 142 156 169 191 187 172 178 199 204 198 204 213 196 205 117 175 141 151 182 215 350 102 47 212 202 250 250 173 169 179 164 158 165 155
10 334 173 152 148 157 177 205 199 192 190 162 181 190 191 185 190 191 188 209 205 204 224 193 171 200 139 166 233 218 151 159 218 196 230 242 244 248 201 206 189 179 175 168 157
30 22 346 151 154 169 195 199 182 174 191 176 189 190 205 186 197 195 197 203 195 187 200 183 190 131 169 210 180 170 187 218 227 224 224 256 245 265 222 194 191 184 172 167 167
72 153 349 191 159 184 199 189 168 170 201 200 260 187 193 184 196 195 219 198 194 164 190 184 115 169 198 95 274 229 214 198 196 198 250 296 254 128 353 169 178 174 170 168 165
93 112 315 279 166 188 187 199 192 179 184 182 203 194 206 182 189 209 202 130 184 171 183 160 184 131 190 229 196 223 223 239 237 32 215 206 256 111 166 168 173 167 168 166 168
168 104 30 5 320 171 171 188 190 195 192 198 184 173 176 191 214 200 209 120 174 190 198 159 165 210 217 228 157 203 208 209 225 224 235 229 253 154 170 175 177 178 183 176 176
331 108 99 165 279 196 177 174 152 172 209 193 191 208 186 177 200 211 196 129 148 200 179 182 209 219 246 261 174 201 195 203 209 226 218 241 245 238 192 189 194 188 175 181 187
253 197 139 91 143 200 179 192 193 181 172 193 217 192 205 216 192 170 175 177 175 181 193 209 242 206 242 230 229 236 222 209 214 227 232 248 255 239 255 190 188 189 187 192 194
122 3 281 135 123 141 222 174 207 198 202 204 207 222 216 239 267 7 176 199 163 163 183 169 140 119 239 143 94 286 230 221 223 224 223 233 242 215 215 195 192 190 198 197 186